Location: *
(50.3440°N, 18.6237°E)
Time: 16:56:25
(UTC+00:00)

USA 267 - Pass Details

Date: 30 November 2020
Orbit: 1100 x 1107 km, 123.0° (Epoch: 18 January)

Event Time Altitude Azimuth Distance (km) Brightness Sun altitude
Exits shadow 18:18:23 63° 207° (SSW) 1,216 3.4 -33.1°
Maximum altitude 18:18:36 64° 218° (SW) 1,212 3.4 -33.1°
Drops below altitude 10° 18:25:07 10° 300° (WNW) 2,968 6.2 -34.1°
Sets 18:27:39 0° 303° (WNW) 3,930 7.0 -34.5°
